This demonstration page uses our WeatherBlox Daily Observations layout. Learn more.

Left ArrowRight Arrow

41.55636, -103.73856

Hourly Observations for December 28, 2020

Temp ( °F °C ) Dew Point ( °F °C ) Humidity (%) Winds ( mph kmh ) Pressure ( in mb ) Visibility ( mi km ) Precip ( " mm )
12:58 am 00:58 Clear 23 -5.1 22 -5.8 95 95 W 5 7 30.26 1025 10 16 0.00 0.00
1:58 am 01:58 Clear 22 -5.4 21 -6.2 94 94 WSW 3 6 30.26 1025 10 16 0.00 0.00
2:58 am 02:58 Clear 18 -7.8 16 -8.9 92 92 WSW 5 7 30.28 1026 10 16 0.00 0.00
3:58 am 03:58 Clear 16 -8.7 15 -9.5 94 94 NNW 8 13 30.30 1026 10 16 0.00 0.00
4:58 am 04:58 Clear 16 -8.8 15 -9.3 96 96 W 3 6 30.34 1027 10 16 0.00 0.00
5:58 am 05:58 Mostly Cloudy 14 -10.2 13 -10.4 98 98 SW 7 11 30.36 1028 10 16 0.00 0.00
6:58 am 06:58 Clear 15 -9.4 13 -10.3 93 93 SW 7 11 30.36 1028 10 16 0.00 0.00
7:58 am 07:58 Sunny 13 -10.6 11 -11.5 93 93 SW 6 9 30.40 1029 10 16 0.00 0.00
8:58 am 08:58 Sunny 23 -4.9 22 -5.3 97 97 S 3 6 30.37 1028 10 16 0.00 0.00
9:58 am 09:58 Sunny 32 -0.2 27 -3 82 82 SSE 9 15 30.34 1028 10 16 0.00 0.00
10:58 am 10:58 Sunny 32 -0.1 25 -4 75 75 SSE 14 22 30.31 1026 10 16 0.00 0.00
11:58 am 11:58 Sunny 33 0.5 23 -4.8 68 68 SSE 14 22 30.30 1026 10 16 0.00 0.00
12:58 pm 12:58 Mostly Cloudy 34 0.9 23 -4.8 66 66 SE 12 19 30.25 1024 10 16 0.00 0.00
1:58 pm 13:58 Mostly Cloudy 34 0.9 22 -5.3 64 64 SE 13 20 30.24 1024 10 16 0.00 0.00
2:58 pm 14:58 Mostly Cloudy with Light Snow 31 -0.4 25 -4 77 77 SSE 18 30 30.28 1025 5 8 0.00 0.00
3:58 pm 15:58 Mostly Cloudy with Light Snow 29 -1.5 27 -3 90 90 ESE 14 22 30.25 1024 7 11 0.00 0.00
4:58 pm 16:58 Mostly Cloudy with Light Snow 29 -1.8 27 -3 92 92 SE 13 20 30.24 1024 5 8 0.00 0.00
5:58 pm 17:58 Cloudy with Light Snow 28 -2.2 26 -3.5 91 91 ESE 17 28 30.22 1023 5 8 0.01 0.25
6:58 pm 18:58 Windy with Snow Likely 28 -2.1 26 -3.5 90 90 SE 20 31 30.20 1023 5 8 0.00 0.00
7:58 pm 19:58 Windy with Snow Likely 28 -2.4 25 -3.8 90 90 SE 23 37 30.18 1022 3 4 0.00 0.00
8:58 pm 20:58 Windy with Snow Likely 27 -2.7 24 -4.2 90 90 SE 22 35 30.12 1020 3 4 0.00 0.00
9:58 pm 21:58 Windy with Snow Likely 27 -2.9 24 -4.6 88 88 SSE 23 37 30.08 1019 2 4 0.00 0.00
10:58 pm 22:58 Windy with Snow Likely 27 -2.9 24 -4.4 90 90 SSE 26 43 30.04 1017 2 2 0.00 0.00
11:58 pm 23:58 Cloudy with Snow 26 -3.3 24 -4.6 91 91 SSE 28 44 29.98 1015 1 2 0.00 0.00

Powered by AerisWeather